Tracking 20232 objects as of 20-Jan-2020
HD Live streaming from Space Station
objects crossing your sky now

SL-19 R/B

Track SL-19 R/B now!
10-day predictions


NORAD ID: 39252
Int'l Code: 2013-048D
Perigee: 1,179.2 km
Apogee: 1,518.8 km
Inclination: 82.5 °
Period: 112.5 minutes
Semi major axis: 7719 km
RCS: Unknown
Launch date: September 11, 2013
Source: Commonwealth of Independent States (former USSR) (CIS)
Launch site: PLESETSK MISSILE AND SPACE COMPLEX (PKMTR)

Note: This is a ROCKET BODY
aabbcc
Your satellite tracking list
Your tracking list is empty




NASA's NSSDC Master Catalog

Two Line Element Set (TLE):
1 39252U 13048D   20020.15989960 -.00000001  00000-0 -39999-4 0  9994
2 39252  82.4839 259.0690 0219941 246.7853 110.9950 12.79909505296930
Source of the keplerian elements: AFSPC